Time,TemperatureF,DewpointF,PressureIn,WindDirection,WindDirectionDegrees,WindSpeedMPH,WindSpeedGustMPH,Humidity,HourlyPrecipIn,Conditions,Clouds,dailyrainin,SolarRadiationWatts/m^2,SoftwareType,DateUTC
2013-03-17 00:02:00,16.0,10.0,-100.00,NW,309,2.0,5.0,76,0.00,,,0.08,0.000000,,2013-03-17 05:02:00,
2013-03-17 00:32:00,15.0,9.0,-100.00,NW,307,3.0,6.0,77,0.00,,,0.06,0.000000,,2013-03-17 05:32:00,
2013-03-17 00:42:00,15.0,9.0,-100.00,NW,307,3.0,6.0,77,0.00,,,0.06,0.000000,,2013-03-17 05:42:00,
2013-03-17 00:52:00,15.0,9.0,-100.00,NW,307,3.0,6.0,77,0.00,,,0.06,0.000000,,2013-03-17 05:52:00,
2013-03-17 01:02:00,15.0,9.0,-100.00,NW,307,3.0,6.0,77,0.00,,,0.06,0.000000,,2013-03-17 06:02:00,
2013-03-17 01:32:00,14.0,8.0,-100.00,NNW,328,3.0,6.0,75,0.00,,,0.03,0.000000,,2013-03-17 06:32:00,
2013-03-17 01:42:00,14.0,8.0,-100.00,NNW,328,3.0,6.0,75,0.00,,,0.03,0.000000,,2013-03-17 06:42:00,
2013-03-17 01:52:00,14.0,8.0,-100.00,NNW,328,3.0,6.0,75,0.00,,,0.03,0.000000,,2013-03-17 06:52:00,
2013-03-17 02:02:00,14.0,8.0,-100.00,NNW,328,3.0,6.0,75,0.00,,,0.03,0.000000,,2013-03-17 07:02:00,
2013-03-17 02:32:00,11.0,4.0,-100.00,North,349,3.0,6.0,74,0.00,,,0.01,0.000000,,2013-03-17 07:32:00,
2013-03-17 02:42:00,11.0,4.0,-100.00,North,349,3.0,6.0,74,0.00,,,0.01,0.000000,,2013-03-17 07:42:00,
2013-03-17 02:52:00,11.0,4.0,-100.00,North,349,3.0,6.0,74,0.00,,,0.01,0.000000,,2013-03-17 07:52:00,
2013-03-17 03:02:00,11.0,4.0,-100.00,North,349,3.0,6.0,74,0.00,,,0.01,0.000000,,2013-03-17 08:02:00,
2013-03-17 03:33:00,7.0,3.0,-100.00,North,352,3.0,4.0,84,0.00,,,0.00,0.000000,,2013-03-17 08:33:00,
2013-03-17 03:42:00,7.0,3.0,-100.00,North,352,3.0,4.0,84,0.00,,,0.00,0.000000,,2013-03-17 08:42:00,
2013-03-17 03:52:00,7.0,3.0,-100.00,North,352,3.0,4.0,84,0.00,,,0.00,0.000000,,2013-03-17 08:52:00,
2013-03-17 04:02:00,7.0,3.0,-100.00,North,352,3.0,4.0,84,0.00,,,0.00,0.000000,,2013-03-17 09:02:00,
2013-03-17 04:33:00,6.0,2.0,-100.00,North,358,3.0,5.0,82,0.00,,,0.00,0.000000,,2013-03-17 09:33:00,
2013-03-17 04:43:00,6.0,2.0,-100.00,North,358,3.0,5.0,82,0.00,,,0.00,0.000000,,2013-03-17 09:43:00,
2013-03-17 04:53:00,6.0,2.0,-100.00,North,358,3.0,5.0,82,0.00,,,0.00,0.000000,,2013-03-17 09:53:00,
2013-03-17 05:03:00,6.0,2.0,-100.00,North,358,3.0,5.0,82,0.00,,,0.00,0.000000,,2013-03-17 10:03:00,
2013-03-17 05:33:00,6.0,2.0,-100.00,NNE,20,3.0,5.0,82,0.00,,,0.00,0.000000,,2013-03-17 10:33:00,
2013-03-17 05:42:00,6.0,2.0,-100.00,NNE,20,3.0,5.0,82,0.00,,,0.00,0.000000,,2013-03-17 10:42:00,
2013-03-17 05:52:00,6.0,2.0,-100.00,NNE,20,3.0,5.0,82,0.00,,,0.00,0.000000,,2013-03-17 10:52:00,
2013-03-17 06:02:00,6.0,2.0,-100.00,NNE,20,3.0,5.0,82,0.00,,,0.00,0.000000,,2013-03-17 11:02:00,
2013-03-17 06:32:00,-1.0,-6.0,-100.00,North,11,2.0,5.0,80,0.00,,,0.00,0.000000,,2013-03-17 11:32:00,
2013-03-17 06:43:00,-1.0,-6.0,-100.00,North,11,2.0,5.0,80,0.00,,,0.00,0.000000,,2013-03-17 11:43:00,
2013-03-17 06:52:00,-1.0,-6.0,-100.00,North,11,2.0,5.0,80,0.00,,,0.00,0.000000,,2013-03-17 11:52:00,
2013-03-17 07:02:00,-1.0,-6.0,-100.00,North,11,2.0,5.0,80,0.00,,,0.00,0.000000,,2013-03-17 12:02:00,
2013-03-17 07:33:00,-5.0,-10.0,-100.00,NNE,14,2.0,4.0,79,0.00,,,0.00,0.000000,,2013-03-17 12:33:00,
2013-03-17 07:43:00,-5.0,-10.0,-100.00,NNE,14,2.0,4.0,79,0.00,,,0.00,0.000000,,2013-03-17 12:43:00,
2013-03-17 07:52:00,-5.0,-10.0,-100.00,NNE,14,2.0,4.0,79,0.00,,,0.00,0.000000,,2013-03-17 12:52:00,
2013-03-17 08:02:00,-5.0,-10.0,-100.00,NNE,14,2.0,4.0,79,0.00,,,0.00,0.000000,,2013-03-17 13:02:00,
2013-03-17 08:32:00,6.0,2.0,-100.00,ENE,57,3.0,6.0,82,0.00,,,0.00,59.000000,,2013-03-17 13:32:00,
2013-03-17 08:43:00,6.0,2.0,-100.00,ENE,57,3.0,6.0,82,0.00,,,0.00,59.000000,,2013-03-17 13:43:00,
2013-03-17 08:52:00,6.0,2.0,-100.00,ENE,57,3.0,6.0,82,0.00,,,0.00,59.000000,,2013-03-17 13:52:00,
2013-03-17 09:02:00,6.0,2.0,-100.00,ENE,57,3.0,6.0,82,0.00,,,0.00,59.000000,,2013-03-17 14:02:00,
2013-03-17 09:33:00,15.0,3.0,-100.00,East,94,7.0,13.0,59,0.00,,,0.00,237.000000,,2013-03-17 14:33:00,
2013-03-17 09:42:00,15.0,3.0,-100.00,East,94,7.0,13.0,59,0.00,,,0.00,237.000000,,2013-03-17 14:42:00,
2013-03-17 09:53:00,15.0,3.0,-100.00,East,94,7.0,13.0,59,0.00,,,0.00,237.000000,,2013-03-17 14:53:00,
2013-03-17 10:02:00,15.0,3.0,-100.00,East,94,7.0,13.0,59,0.00,,,0.00,237.000000,,2013-03-17 15:02:00,
2013-03-17 10:33:00,17.0,3.0,-100.00,ESE,108,11.0,17.0,53,0.00,,,0.00,421.000000,,2013-03-17 15:33:00,
2013-03-17 10:43:00,17.0,3.0,-100.00,ESE,108,11.0,17.0,53,0.00,,,0.00,421.000000,,2013-03-17 15:43:00,
2013-03-17 10:53:00,17.0,3.0,-100.00,ESE,108,11.0,17.0,53,0.00,,,0.00,421.000000,,2013-03-17 15:53:00,
2013-03-17 11:03:00,17.0,3.0,-100.00,ESE,108,11.0,17.0,53,0.00,,,0.00,421.000000,,2013-03-17 16:03:00,
2013-03-17 11:33:00,20.0,4.0,-100.00,ESE,106,9.0,16.0,49,0.00,,,0.00,567.000000,,2013-03-17 16:33:00,
2013-03-17 11:43:00,20.0,4.0,-100.00,ESE,106,9.0,16.0,49,0.00,,,0.00,567.000000,,2013-03-17 16:43:00,
2013-03-17 11:52:00,20.0,4.0,-100.00,ESE,106,9.0,16.0,49,0.00,,,0.00,567.000000,,2013-03-17 16:52:00,
2013-03-17 12:02:00,20.0,4.0,-100.00,ESE,106,9.0,16.0,49,0.00,,,0.00,567.000000,,2013-03-17 17:02:00,
2013-03-17 12:33:00,24.0,5.0,-100.00,East,91,8.0,16.0,44,0.00,,,0.00,682.000000,,2013-03-17 17:33:00,
2013-03-17 12:42:00,24.0,5.0,-100.00,East,91,8.0,16.0,44,0.00,,,0.00,682.000000,,2013-03-17 17:42:00,
2013-03-17 12:53:00,24.0,5.0,-100.00,East,91,8.0,16.0,44,0.00,,,0.00,682.000000,,2013-03-17 17:53:00,
2013-03-17 13:02:00,24.0,5.0,-100.00,East,91,8.0,16.0,44,0.00,,,0.00,682.000000,,2013-03-17 18:02:00,
2013-03-17 13:32:00,26.0,6.0,-100.00,SE,126,9.0,16.0,42,0.00,,,0.00,735.000000,,2013-03-17 18:32:00,
2013-03-17 13:42:00,26.0,6.0,-100.00,SE,126,9.0,16.0,42,0.00,,,0.00,735.000000,,2013-03-17 18:42:00,
2013-03-17 13:52:00,26.0,6.0,-100.00,SE,126,9.0,16.0,42,0.00,,,0.00,735.000000,,2013-03-17 18:52:00,
2013-03-17 14:02:00,26.0,6.0,-100.00,SE,126,9.0,16.0,42,0.00,,,0.00,735.000000,,2013-03-17 19:02:00,
2013-03-17 14:33:00,28.0,8.0,-100.00,ESE,119,10.0,16.0,43,0.00,,,0.00,729.000000,,2013-03-17 19:33:00,
2013-03-17 14:42:00,28.0,8.0,-100.00,ESE,119,10.0,16.0,43,0.00,,,0.00,729.000000,,2013-03-17 19:42:00,
2013-03-17 14:53:00,28.0,8.0,-100.00,ESE,119,10.0,16.0,43,0.00,,,0.00,729.000000,,2013-03-17 19:53:00,
2013-03-17 15:02:00,28.0,8.0,-100.00,ESE,119,10.0,16.0,43,0.00,,,0.00,729.000000,,2013-03-17 20:02:00,
2013-03-17 15:33:00,29.0,10.0,-100.00,ESE,106,10.0,17.0,45,0.00,,,0.00,666.000000,,2013-03-17 20:33:00,
2013-03-17 15:43:00,29.0,10.0,-100.00,ESE,106,10.0,17.0,45,0.00,,,0.00,666.000000,,2013-03-17 20:43:00,
2013-03-17 15:52:00,29.0,10.0,-100.00,ESE,106,10.0,17.0,45,0.00,,,0.00,666.000000,,2013-03-17 20:52:00,
2013-03-17 16:03:00,29.0,10.0,-100.00,ESE,106,10.0,17.0,45,0.00,,,0.00,666.000000,,2013-03-17 21:03:00,
2013-03-17 16:33:00,28.0,9.0,-100.00,ESE,114,12.0,17.0,45,0.00,,,0.00,553.000000,,2013-03-17 21:33:00,
2013-03-17 16:43:00,28.0,9.0,-100.00,ESE,114,12.0,17.0,45,0.00,,,0.00,553.000000,,2013-03-17 21:43:00,
2013-03-17 16:52:00,28.0,9.0,-100.00,ESE,114,12.0,17.0,45,0.00,,,0.00,553.000000,,2013-03-17 21:52:00,
2013-03-17 17:03:00,28.0,9.0,-100.00,ESE,114,12.0,17.0,45,0.00,,,0.00,553.000000,,2013-03-17 22:03:00,
2013-03-17 17:33:00,28.0,11.0,-100.00,SE,124,12.0,18.0,48,0.00,,,0.00,395.000000,,2013-03-17 22:33:00,
2013-03-17 17:42:00,28.0,11.0,-100.00,SE,124,12.0,18.0,48,0.00,,,0.00,395.000000,,2013-03-17 22:42:00,
2013-03-17 17:53:00,28.0,11.0,-100.00,SE,124,12.0,18.0,48,0.00,,,0.00,395.000000,,2013-03-17 22:53:00,
2013-03-17 18:02:00,28.0,11.0,-100.00,SE,124,12.0,18.0,48,0.00,,,0.00,395.000000,,2013-03-17 23:02:00,
2013-03-17 18:33:00,26.0,10.0,-100.00,SE,132,11.0,18.0,51,0.00,,,0.00,214.000000,,2013-03-17 23:33:00,
2013-03-17 18:43:00,26.0,10.0,-100.00,SE,132,11.0,18.0,51,0.00,,,0.00,214.000000,,2013-03-17 23:43:00,
2013-03-17 18:53:00,26.0,10.0,-100.00,SE,132,11.0,18.0,51,0.00,,,0.00,214.000000,,2013-03-17 23:53:00,
2013-03-17 19:03:00,26.0,10.0,-100.00,SE,132,11.0,18.0,51,0.00,,,0.00,214.000000,,2013-03-18 00:03:00,
2013-03-17 20:33:00,20.0,10.0,-100.00,ESE,105,5.0,11.0,65,-99.99,,,0.00,1.000000,,2013-03-18 01:33:00,
2013-03-17 20:42:00,20.0,10.0,-100.00,ESE,105,5.0,11.0,65,-99.99,,,0.00,1.000000,,2013-03-18 01:42:00,
2013-03-17 20:52:00,20.0,10.0,-100.00,ESE,105,5.0,11.0,65,-99.99,,,0.00,1.000000,,2013-03-18 01:52:00,
2013-03-17 21:02:00,20.0,10.0,-100.00,ESE,105,5.0,11.0,65,-99.99,,,0.00,1.000000,,2013-03-18 02:02:00,
2013-03-17 21:32:00,18.0,11.0,-100.00,ESE,108,5.0,12.0,72,0.00,,,0.00,0.000000,,2013-03-18 02:32:00,
2013-03-17 21:42:00,18.0,11.0,-100.00,ESE,108,5.0,12.0,72,0.00,,,0.00,0.000000,,2013-03-18 02:42:00,
2013-03-17 21:52:00,18.0,11.0,-100.00,ESE,108,5.0,12.0,72,0.00,,,0.00,0.000000,,2013-03-18 02:52:00,
2013-03-17 22:02:00,18.0,11.0,-100.00,ESE,108,5.0,12.0,72,0.00,,,0.00,0.000000,,2013-03-18 03:02:00,
2013-03-17 22:33:00,18.0,11.0,-100.00,ESE,113,7.0,10.0,75,0.00,,,0.00,0.000000,,2013-03-18 03:33:00,
2013-03-17 22:42:00,18.0,11.0,-100.00,ESE,113,7.0,10.0,75,0.00,,,0.00,0.000000,,2013-03-18 03:42:00,
2013-03-17 22:53:00,18.0,11.0,-100.00,ESE,113,7.0,10.0,75,0.00,,,0.00,0.000000,,2013-03-18 03:53:00,
2013-03-17 23:03:00,18.0,11.0,-100.00,ESE,113,7.0,10.0,75,0.00,,,0.00,0.000000,,2013-03-18 04:03:00,
2013-03-17 23:33:00,17.0,11.0,-100.00,ESE,111,6.0,11.0,76,0.00,,,0.00,0.000000,,2013-03-18 04:33:00,
2013-03-17 23:42:00,17.0,11.0,-100.00,ESE,111,6.0,11.0,76,0.00,,,0.00,0.000000,,2013-03-18 04:42:00,
2013-03-17 23:53:00,17.0,11.0,-100.00,ESE,111,6.0,11.0,76,0.00,,,0.00,0.000000,,2013-03-18 04:53:00,